sat.trackr.live / text

‹ back to catalog

STARLINK-2432

NORAD 47840 · 2021-018BF

PAYLOAD ACTIVE UNKNOWN

§ Identity

Operator
Country
US
Launch date
2021-03-11
Launch site
AFETR
Launch vehicle
Mass (kg)
RCS (m²)

Purposes: comms

External: N2YO · Heavens-Above · Gunter

§ Orbital elements

Epoch: 2026-09-12T22:49:28.362144Z

Period
94.01 min
Inclination
53.1596°
Eccentricity
0.0001126
Mean motion
15.31700895 rev/d
Perigee alt
470.0 km
Apogee alt
471.5 km
Semi-major
6,848.9 km
B*
7.1445e-5
RAAN
87.7479°
Arg perigee
88.4763°
Mean anomaly
271.6367°
Rev number
30,545

§ Raw data

STARLINK-24321 47840U 21018BF  26255.95102271  .00001853  00000+0  71445-4 0  99932 47840  53.1596  87.7479 0001126  88.4763 271.6367 15.31700895305450

JSON: /api/v1/satellites/47840 · /tle

For live sub-satellite position, see the globe view (requires WebGL).

§ Visibility from observer

Set your observer location to see the next 7 days of passes ≥ 10°. The values pass through the URL so the page stays shareable.

No JS? Fill the form by hand. The geolocation button needs JavaScript.